Regional Weather Roundup
Issued by NWS Sioux Falls, SD

Home | Current Version | Previous Version | Text Only | Print | Product List | Glossary Off
Versions: 1 2 3 4 5 6 7 8 9 10 11 12 13 14 15 16 17 18 19 20 21 22 23 24 25 26 27 28 29 30 31 32 33 34 35 36 37 38 39 40 41 42 43 44 45 46 47 48 49 50

000
ASUS43 KFSD 011902
RWRFSD

WEATHER ROUNDUP FOR SE SOUTH DAKOTA/SW MINNESOTA/NW IOWA
NATIONAL WEATHER SERVICE SIOUX FALLS SD
200 PM CDT WED OCT 01 2014

NOTE: "FAIR" INDICATES FEW OR NO CLOUDS BELOW 12,000 FEET WITH NO
SIGNIFICANT WEATHER AND OR OBSTRUCTIONS TO VISIBILITY.


SDZ038>040-050-052>070-012000-
SOUTHEAST SOUTH DAKOTA

CITY           SKY/WX    TMP DP  RH WIND       PRES   REMARKS
CHAMBERLAIN    MOSUNNY   71  49  46 NW12G18   29.77S
HURON          SUNNY     72  50  45 NW13      29.72F
MADISON        FAIR      72  55  56 W10G20    29.73S
MITCHELL       SUNNY     74  52  46 NW14      29.73F
SIOUX FALLS    PTSUNNY   72  59  63 VRB5      29.73S
WINNER         FAIR      71  49  45 N14       29.80S
YANKTON        PTSUNNY   73  57  56 W8        29.73F
$$

MNZ071-072-080-081-089-090-097-098-012000-
SOUTHWEST MINNESOTA

CITY           SKY/WX    TMP DP  RH WIND       PRES   REMARKS
FAIRMONT       CLOUDY    57  54  88 SE8       29.76F
JACKSON        CLOUDY    64  55  72 S8        29.76S
LUVERNE        PTSUNNY   77  54  44 SW10      29.73S
MARSHALL       CLOUDY    72  57  60 E3        29.70S
MONTEVIDEO     CLOUDY    70  61  73 S8        29.71S
PIPESTONE      MOSUNNY   72  57  60 SW8       29.73S
REDWOOD FALLS  SUNNY     67  56  67 SE13      29.72F
TRACY          MOSUNNY   70  60  70 S10       29.72F
WINDOM         MOSUNNY   66  57  72 S6        29.75R
WORTHINGTON    PTSUNNY   64  57  77 S10       29.76F
$$

IAZ001>003-012>014-020>022-031-032-NEZ013-014-SDZ071-012000-
NORTHWEST IOWA

CITY           SKY/WX    TMP DP  RH WIND       PRES   REMARKS
CHEROKEE       MOSUNNY   71  62  71 SW5       29.75R
DENISON        MOSUNNY   73  63  68 VRB3      29.73S
ESTHERVILLE    CLOUDY    64  61  90 S10       29.76S
LE MARS        MOSUNNY   73  61  64 S10       29.74S
ORANGE CITY    PTSUNNY   73  57  56 SW7       29.74S
SHELDON        PTSUNNY   72  61  68 VRB5      29.73F
SIOUX CITY     SUNNY     76  60  57 VRB5      29.74S
SPENCER        CLOUDY    63  58  83 SW7       29.77R
STORM LAKE     MOSUNNY   72  59  64 VRB3      29.76S
$$

ABBREVIATIONS USED IN REMARKS
   TC - TEMPERATURE IN CELSIUS
  WCI - WIND CHILL INDEX
   HX - HEAT INDEX
  VSB - VISIBILITY




USA.gov is the U.S. government's official web portal to all federal, state and local government web resources and services.